Haines, AK

3:48 AM AKST on January 24, 2017 (GMT -0900)
Haines

Weather History for PAHN - September, 2013

Change the Weather History Date:

Wednesday, September 18, 2013

  Actual Average Record
Temperature  
Mean Temperature 48 °F -  
Max Temperature 51 °F 52 °F 72 °F (2010)
Min Temperature 46 °F 44 °F 30 °F (1978)
Degree Days  
Heating Degree Days 16    
Moisture  
Dew Point 46 °F    
Average Humidity 87    
Maximum Humidity 94    
Minimum Humidity 76    
Precipitation  
Precipitation 0.16 in - - ()
Sea Level Pressure  
Sea Level Pressure 29.78 in    
Wind  
Wind Speed 7 mph (East)    
Max Wind Speed 12 mph    
Max Gust Speed 16 mph    
Visibility 10 miles    
Events Rain    
Averages and records for this station are not official NWS values.
T = Trace of Precipitation, MM = Missing Value Source: NWS Daily Summary

Daily Weather History Graph

Daily Weather History Graph

Search for Another Location

Airport or City:

Trip Planner

Search our weather history database for the weather conditions in past years. The results will help you decide how hot, cold, wet, or windy it might be!

Date:

Astronomy

Sep. 18, 2013 Rise Set
Actual Time 6:38 AM AKDT 7:12 PM AKDT
Civil Twilight 5:57 AM AKDT 7:53 PM AKDT
Nautical Twilight 5:07 AM AKDT 8:42 PM AKDT
Astronomical Twilight 4:12 AM AKDT 9:36 PM AKDT
Moon 6:33 PM AKDT (9/18) 5:48 AM AKDT (9/18)
Length of Visible Light 13h 55m
Length of Day
12h 33m
Waxing Gibbous, 99% of the Moon is Illuminated
Sep 18
Waxing Gibbous
Sep 19
Full
Sep 26
Last Quarter
Oct 4
New
Oct 11
First Quarter

Hourly Weather History & Observations

Time (AKDT) Temp. Dew Point Humidity Pressure Visibility Wind Dir Wind Speed Gust Speed Precip Events Conditions
12:45 AM 51.8 °F 46.4 °F 82% 29.75 in 10.0 mi East 8.1 mph - N/A   Overcast
12:54 AM 51.1 °F 48.0 °F 89% 29.76 in 10.0 mi East 6.9 mph - N/A   Overcast
1:19 AM 50.0 °F 46.4 °F 87% 29.75 in 7.0 mi East 6.9 mph - 0.00 in Rain Light Rain
1:54 AM 50.0 °F 46.0 °F 86% 29.77 in 10.0 mi East 4.6 mph - 0.00 in   Overcast
2:05 AM 50.0 °F 44.6 °F 82% 29.76 in 10.0 mi East 4.6 mph - N/A   Overcast
2:54 AM 50.0 °F 44.1 °F 80% 29.76 in 10.0 mi East 8.1 mph - N/A   Overcast
3:10 AM 50.0 °F 44.6 °F 82% 29.75 in 10.0 mi East 6.9 mph - N/A   Overcast
3:21 AM 51.8 °F 44.6 °F 76% 29.75 in 10.0 mi East 5.8 mph - N/A   Overcast
3:54 AM 48.9 °F 45.0 °F 86% 29.77 in 5.0 mi East 8.1 mph - 0.01 in Rain Light Rain
4:07 AM 48.2 °F 46.4 °F 93% 29.76 in 6.0 mi East 6.9 mph - 0.00 in Rain Light Rain
4:54 AM 48.9 °F 46.0 °F 90% 29.77 in 10.0 mi East 8.1 mph - 0.04 in Rain Light Rain
5:54 AM 48.9 °F 46.0 °F 90% 29.77 in 10.0 mi ENE 8.1 mph - 0.01 in   Overcast
6:54 AM 48.9 °F 46.0 °F 90% 29.77 in 6.0 mi East 9.2 mph - 0.01 in   Overcast
7:54 AM 48.9 °F 46.0 °F 90% 29.78 in 10.0 mi East 6.9 mph - 0.01 in   Overcast
8:03 AM 48.2 °F 46.4 °F 93% 29.77 in 10.0 mi East 10.4 mph 16.1 mph 0.01 in   Overcast
8:54 AM 50.0 °F 46.0 °F 86% 29.78 in 10.0 mi East 6.9 mph 16.1 mph 0.01 in   Overcast
9:54 AM 50.0 °F 46.0 °F 86% 29.78 in 8.0 mi East 9.2 mph - 0.01 in   Overcast
10:54 AM 50.0 °F 46.9 °F 89% 29.79 in 10.0 mi East 5.8 mph - 0.01 in   Overcast
11:54 AM 50.0 °F 48.0 °F 93% 29.80 in 10.0 mi East 5.8 mph - 0.01 in Rain Light Rain
12:13 PM 50.0 °F 48.2 °F 94% 29.79 in 10.0 mi East 8.1 mph - 0.00 in   Overcast
12:54 PM 50.0 °F 48.0 °F 93% 29.79 in 10.0 mi East 11.5 mph - 0.01 in   Overcast
1:12 PM 51.8 °F 48.2 °F 88% 29.79 in 10.0 mi Variable 5.8 mph - 0.00 in   Overcast
1:54 PM 51.1 °F 46.9 °F 86% 29.81 in 10.0 mi ESE 8.1 mph - 0.00 in   Overcast
2:13 PM 51.8 °F 46.4 °F 82% 29.80 in 10.0 mi Variable 5.8 mph - N/A   Overcast
2:54 PM 50.0 °F 46.0 °F 86% 29.81 in 10.0 mi ENE 6.9 mph - N/A   Overcast
3:20 PM 51.8 °F 46.4 °F 82% 29.80 in 10.0 mi ENE 6.9 mph - 0.00 in Rain Light Rain
3:27 PM 50.0 °F 46.4 °F 87% 29.80 in 10.0 mi Variable 5.8 mph - 0.00 in   Overcast
3:54 PM 51.1 °F 46.0 °F 83% 29.80 in 10.0 mi East 8.1 mph - 0.00 in   Overcast
4:20 PM 50.0 °F 44.6 °F 82% 29.79 in 10.0 mi East 8.1 mph - 0.01 in   Overcast
4:54 PM 50.0 °F 46.0 °F 86% 29.80 in 10.0 mi ENE 8.1 mph - 0.01 in   Overcast
5:09 PM 50.0 °F 44.6 °F 82% 29.79 in 10.0 mi ENE 9.2 mph - 0.00 in   Overcast
5:54 PM 50.0 °F 46.0 °F 86% 29.80 in 10.0 mi East 5.8 mph - 0.00 in   Overcast
6:54 PM 50.0 °F 45.0 °F 83% 29.80 in 10.0 mi East 6.9 mph - N/A   Overcast
7:54 PM 48.9 °F 44.1 °F 83% 29.80 in 10.0 mi East 5.8 mph - N/A   Overcast
8:44 PM 48.2 °F 44.6 °F 87% 29.78 in 10.0 mi East 5.8 mph - 0.00 in Rain Light Rain
8:54 PM 48.9 °F 44.1 °F 83% 29.79 in 10.0 mi ENE 4.6 mph - 0.00 in Rain Light Rain
9:12 PM 48.2 °F 44.6 °F 87% 29.78 in 10.0 mi East 4.6 mph - 0.01 in Rain Light Rain
9:54 PM 46.9 °F 44.1 °F 90% 29.79 in 10.0 mi SE 3.5 mph - 0.01 in Rain Light Rain
10:54 PM 46.9 °F 44.1 °F 90% 29.78 in 10.0 mi SE 3.5 mph - 0.00 in Rain Light Rain
11:20 PM 46.4 °F 44.6 °F 93% 29.76 in 10.0 mi Calm Calm - 0.01 in Rain Light Rain
11:54 PM 46.9 °F 45.0 °F 93% 29.75 in 10.0 mi Calm Calm - 0.01 in   Overcast